Back to race calendar

Escrick 10k, York, North Yorkshire

18th August 2013

Results courtesy of Steve Smowton for Escrick 10k. Updated 29/8/13
(This is a sortable table - click column heading)
Filter (choose one only!)
Name:
Cat: Club:
PosNumForenameSurnameCatClubTime
1147StevenBatesonMEast Hull Harriers00:33:59
2409AndyMunzerMYork Acorn Running Club00:35:09
3251TomCharltonMUnattached00:35:11
4207RaymondLoveM40St Theresa's AC00:36:47
5133PeterGulcM40Bridlington Road Runners00:36:52
6243SteveBrownM50Swaledale Roadrunners00:36:57
7151MatthewHayesM40East Hull Harriers00:37:05
8290ShaunHuntM50Unattached00:37:13
9375LindsayToulsonM40Unattached00:37:45
10104DavidStonemanMAirecentre Pacers00:37:47
11388PaulWassM40Unattached00:37:53
12257BrianDavisMUnattached00:37:55
13141StephenLosebyM40Easingwold Running Club00:38:09
14166SteveLargeM40Horsforth Harriers00:38:10
15405DaveBannisterM40York Acorn Running Club00:38:11
16421NeilStabbsMYork Knavesmire Harriers00:38:14
17233LeeBlackburnMUnattached00:38:19
18342RichardPurserMUnattached00:38:47
19417DarrenHendleyMYork Knavesmire Harriers00:38:53
20529CarlaStansfieldFBeverley AC00:38:58
21366NicTateMUnattached00:39:00
22260AndrewDoigM40Unattached00:39:02
23112Richard DunnM40BD2 Running Club00:39:13
24145MarkWhitemanM40Easingwold Running Club00:39:23
25690VictoriaNeedhamFUnattached00:39:26
26252JamesClarkMUnattached00:39:29
27364TomStewartMUnattached00:39:47
28407PeterCrowderM40York Acorn Running Club00:40:00
29566SarahGrahamFMorpeth Harriers00:40:02
30105JoeRestellM40Askern Drc00:40:05
31219RobertAckroydM40Unattached00:40:09
32602MarkAbdyMSt Theresas Athletic Club00:40:17
33126AndrewJohnsonM40Beverley AC00:40:22
34223DavidArundaleMUnattached00:40:26
35150ShaunForesM50East Hull Harriers00:40:29
36134SteveBoyntonM50British Library00:40:42
37116MatthewPopplewellMBD2 Running Club00:40:50
38165RichardWillisM40Harrogate Harriers00:40:50
39590HelenaSchofieldFScarborough AC00:40:55
40191JackVerityM50Saltaire Striders00:40:55
41740CharlotteMasonFYork Acorn00:40:55
42433KevinBoothMSt Theresas00:40:55
43434TomLambMUnattached00:40:55
44267JohnFothergillM40Unattached00:40:58
45127Philip ReeseMBeverley AC00:41:01
46132AndyBakerM40Bridlington Road Runners00:41:02
47121JonVareMBD2 Running Club00:41:03
48320MichaelMillerMUnattached00:41:04
49535CherylOakshottF40City Of Hull AC00:41:05
50416PeteDownesM50York Knavesmire Harriers00:41:06
51754SaraRookyardF40East Hull Harriers00:41:22
52193NeilScrutonM60Scarborough AC00:41:22
53255DavidCrichtonM40Unattached00:41:34
54362GrahamSteeleMUnattached00:41:34
55297FinlayJamesMUnattached00:41:35
56234ChristopherBlagdenM40Unattached00:41:46
57144HowardThompsonM50Easingwold Running Club00:41:49
58211AlanSchofieldM50St Theresa's AC00:42:02
59274DavidGellMUnattached00:42:13
60160JonnyMcFaulMGoole Viking Striders00:42:17
61157CharlieSteadMGoole Junior Viking Striders00:42:17
62345AndyRichardsonM40Unattached00:42:29
63174IanStoreyM40Kippax Harriers00:42:35
64200TonyThorntonM40Settle Harriers00:42:40
65259AlexDobsonM40Unattached00:42:51
66430PaulBergmanM40Easingwold Running Club00:42:53
67216CraigRedmondMTadcaster Harriers00:42:55
68336TimothyPhillipsMUnattached00:42:56
69199BenSumpnerMSelby Striders00:42:56
70354RobShawMUnattached00:43:02
71361SteveSolcaMUnattached00:43:08
72356JasonShiptonMUnattached00:43:08
73240ThomasBrookMUnattached00:43:09
74230JasonBethellM40Unattached00:43:11
75373AndrewThurmanMUnattached00:43:16
76392AlistairWhiteMUnattached00:43:19
77383AndrewWalkerM40Unattached00:43:21
78426SamBartleMYorkshire Wolds Runners00:43:22
79288Paul Steven CliffordHowardMUnattached00:43:23
80532SarahWoodFBridlington Road Runners00:43:23
81154Paul NippressM50East Hull Harriers00:43:26
82109ChrisBrearleyMBD2 Running Club00:43:35
83182HowardJeffreyM50Otley AC00:43:42
84261ErwunDorlandM50Unattached00:43:44
85203ChristopherGillM60St Theresa's AC00:43:47
86210PaulMcGreevyMSt Theresa's AC00:43:54
87396Richard JamesWilsonM40Unattached00:44:00
88120MathewSutcliffeMBD2 Running Club00:44:04
89277DavidHalladayM50Unattached00:44:04
90136IanFergussonM40City Of Hull AC00:44:06
91323IanMoranM40Unattached00:44:11
92181MikeDeaconM50Nidd Valley00:44:13
93172AndyCullenMKippax Harriers00:44:17
94188MartinBoothM40Pudsey Pacers00:44:18
95701SusanRobinsonFUnattached00:44:20
96246AlistairBurnMUnattached00:44:21
97128Andrew TateM50Beverley AC00:44:24
98168AndrewNichollsM50Hyde Park Harriers00:44:29
99292DavidHurworthMUnattached00:44:33
100569FionaDeaconF40Nidd Valley Road Runners00:44:36
101387MichaelWardM50Unattached00:44:38
102153IainMcGowanM40East Hull Harriers00:44:40
103401EricGreenM50Valley Striders00:44:40
104194DaveShipleyM50Scarborough AC00:44:42
105107JeffClarkM40Barnsley Harriers00:44:45
106102RichardSmartMAckworth Road Runners00:44:46
107131ShaunLongM40Bingley Harriers00:44:47
108262JamesDurhamMUnattached00:44:53
109169JamesWilkinsonMIdle AC00:45:00
110533BeckyFielding-SmithF40City Of Hull AC00:45:05
111319AndrewMillerMUnattached00:45:09
112408MarkEstienneM40York Acorn Running Club00:45:09
113410MikeRoyceMYork Acorn Running Club00:45:10
114209JamesMayMSt Theresa's AC00:45:19
115419PeterMossMYork Knavesmire Harriers00:45:22
116177AlistairDavyM60Leeds City00:45:23
117343StephenRawlinsonMUnattached00:45:28
118412HowardWinzerM60York Acorn Running Club00:45:34
119739ElizabethGilleyFYork Acorn00:45:41
120519LauraRyallFBD2 Running Club00:45:43
121427SimonMatsonM40Yorkshire Wolds Runners00:45:47
122331DanielO'ConnorMUnattached00:45:48
123202LeeDolmanM40Spenborough & District AC00:45:51
124113JakeJaggerMBD2 Running Club00:45:52
125184MarcusBourneM40Pocklington Runners00:45:53
126178PeteAskewMLong Eaton Running Club00:45:54
127528JayneDaleF50Beverley AC00:46:04
128307NealLamontM40Unattached00:46:07
129129PeterWatkinsonM60Beverley AC00:46:08
130123PaulEvansM40Beverley AC00:46:11
131584EmmaSimmonsFPocklington Runners00:46:13
132256StephenCrossleyM40Unattached00:46:17
133135AlexEatonM40City Of Hull AC00:46:19
134122Joseph WilsonMBD2 Running Club00:46:22
135720SallyTemperleyF40Unattached00:46:29
136376SimonTurnbullMUnattached00:46:29
137523RheaSutcliffeFBD2 Running Club00:46:35
138171NeilAveryM50Kippax Harriers00:46:36
139605WandaMacdonaldF50St Theresas Athletic Club00:46:38
140564RebeccaFishburnFLeeds and Bradford Triathlon Club00:46:45
141235JimBloomfieldMUnattached00:46:47
142284SteveHillM50Unattached00:46:47
143381GaryVoseMUnattached00:46:53
144403AndyFairbairnM50Vocalink Running Club00:46:57
145309PaulLeeM40Unattached00:47:02
146371ChrisThompsonM40Unattached00:47:13
147696KatiePuplettFUnattached00:47:20
148173John AnthonyMessengerM60Kippax Harriers00:47:22
149266PaulFletcherMUnattached00:47:24
150195StuartFoxMSelby Striders00:47:27
151413IanBithellM60York Knavesmire Harriers00:47:27
15255Unknown - allocated 55RunnerMUnattached00:47:28
153534LyndaHieldsFCity Of Hull AC00:47:29
154384TomWallaceMUnattached00:47:44
155143JohnRamsdenMEasingwold Running Club00:47:46
156432MartinStablesMUnattached00:47:48
157249PhilipChapmanMUnattached00:47:49
158589JasmineLaiderFRothwell Harriers00:47:52
159685FrancesMawsonFUnattached00:47:58
160293MatthewHyndsMUnattached00:48:01
161280StuartHanleyM40Unattached00:48:02
162614AnnaBachorzFUnattached00:48:02
163549SueSimpsonF50Harrogate Harriers00:48:03
164398JonathonWrayM40Unattached00:48:06
165279BenHampelMUnattached00:48:07
166370MarkThompsonMUnattached00:48:15
167502DebbieBlandF60Baildon00:48:18
168270DanielFoxMUnattached00:48:19
169406IanBrownM50York Acorn Running Club00:48:19
170424TimHammondM40Yorkshire Wold Runners00:48:21
171176JoshuaNormanMKUHAC00:48:22
172372MarkThompsonM40Unattached00:48:24
173738Gill BoyntonF50York Acorn00:48:24
174588JoHeseltineF40Rothwell Harriers00:48:26
175352DominicRyanMUnattached00:48:27
176727JennieWilberforceFUnattached00:48:29
177325NickMortonM50Unattached00:48:33
178559WendyChapmanF50Kippax Harriers00:48:39
179402GaryAndrewsM40Vegan Runners UK00:48:47
180404MartinYoungM50White City (Hull)00:48:55
181368AndyTerryM50Unattached00:48:56
182139KenDartM60Easingwold Running Club00:48:58
183326GrahamMyersM50Unattached00:48:59
184611Diane WaiteF40Stainland Lions00:49:08
185213DavidWaiteM40Stainland Lions00:49:09
186155KelvinWestermanM60East Hull Harriers00:49:14
187521ChristineSmithF40BD2 Running Club00:49:15
188558HelenHortonF50Ilkley Harriers AC00:49:19
189170NigelTapperM50Ilkley Harriers AC00:49:19
190603JulieJamesF50St Theresas Athletic Club00:49:22
191536CharlotteParkerFCity Of Hull AC00:49:24
192142DougPearceM40Easingwold Running Club00:49:25
193394GeoffreyWilcoxM50Unattached00:49:26
194429FrancisO'NeillM50Yorkshire Wolds Runners00:49:26
195553DeniseFrostF50Horsforth Harriers00:49:27
196197Paul KirkhamM50Selby Striders00:49:29
197221MarkAndrewsMUnattached00:49:34
198525Claire ThompsonFBD2 Running Club00:49:34
199425MarkRobertsM40Yorkshire Wolds Runner00:49:37
200571DebbieGibsonF50Nidd Valley Road Runners00:49:38
201294GrahamJacksonM50Unattached00:49:39
202316JamesMartshallMUnattached00:49:42
203733MadeleineStansfieldF60Wakefield Triathlon00:49:44
204241DavidBrookM40Unattached00:49:48
205422MarkSullivanM50York Knavesmire Harriers00:49:51
206218AlanHarmanM50Thirsk & Sowerby Harriers00:49:52
207378MichaelUllathorneM40Unattached00:49:52
208587EmilyBirdFRoberttown Road Runners00:50:09
209227PeterBarkerM60Unattached00:50:10
210140JonathonHarris-DouglasM40Easingwold Running Club00:50:11
211504BevClarkF40Barnsley Harriers00:50:12
212276CraigGledhillM60Unattached00:50:13
213646CarolFeeF40Unattached00:50:13
214159TimHarperM40Goole Viking Striders00:50:18
215512SusanLancasterFBD2 Running Club00:50:22
216303CraigKilmartinM40Unattached00:50:27
217550NicolaWillisF40Harrogate Harriers00:50:28
218289MartinHowmanM40Unattached00:50:28
219302DavidKelseyMUnattached00:50:33
220237SimonBoiM40Unattached00:50:33
22144MarkOakleyM50Unattached00:50:36
222570SarahDonaldsonFNidd Valley Road Runners00:50:37
223245RobertBunkerMUnattached00:50:40
224688AndrewNormanM40Unattached00:50:49
225724YasmineVickersF40Unattached00:50:50
226737SallyWiddowsonFWest Hull Ladies00:50:54
227572JennyManningF40Nidd Valley Road Runners00:50:58
228186CliveReidM60Pocklington Runners00:51:03
229374JimTiptonM40Unattached00:51:05
230100Barry PickeringM60Selby Striders00:51:05
231226JamesBarkerM40Unattached00:51:07
232654StephGledhillFUnattached00:51:09
233628LouiseCastleFUnattached00:51:09
234258PhilipDickinsM40Unattached00:51:09
235315WayneMartindaleM40Unattached00:51:10
236722AnnekaThompsonFUnattached00:51:12
237296StevenJacksonM40Unattached00:51:16
238579HollyDavisFPocklington Runners00:51:21
239301MalachiJoyceM40Unattached00:51:21
240385MickWardM60Unattached00:51:33
241608HelenSwallowF40St Theresas Athletic Club00:51:38
242631LesleyClaytonF50Unattached00:51:39
243752ClaudiDacresF40BD2 Running Club00:51:41
244562KatherinePenroseF60Kippax Harriers00:51:42
245183GedPeacockM50Otley AC00:51:46
246702ClaireRobinsonFUnattached00:51:51
247148DavidBorrillM50East Hull Harriers00:51:52
248541ShirleyOglesbyF60East Hull Harriers00:51:52
249601GillianGrayFSt Theresas Athletic Club00:51:53
250510Danielle HartleyFBD2 Running Club00:51:54
251597SandraStrangewaysF40Selby Striders00:51:58
252196DavidKellettM50Selby Striders00:51:58
253355AndrewShawMUnattached00:52:00
254291AndyHuntM40Unattached00:52:09
255360AndrewSmithM40Unattached00:52:11
256609LauraWoodFSt Theresas Athletic Club00:52:23
257263PeterDurhamM40Unattached00:52:26
258272RichardFreemanMUnattached00:52:28
259103IanWilsonM40Ackworth Road Runners00:52:30
260357AlanSimpsonM40Unattached00:52:39
261244AndrewBrownell-JuddM40Unattached00:52:39
262731KatieChabriereFVegan Runners UK00:52:40
263625MandyCapellFUnattached00:52:42
264180HermesCarlyonMMorpeth Harriers & AC00:52:42
265538JaneMaloneyF50Easingwold Running Club00:52:49
266225LukeBallantyneMUnattached00:53:05
267524SallyTeasdaleFBD2 Running Club00:52:56
268700DawnRitchingsFUnattached00:52:59
269664FayHortonFUnattached00:52:59
270275HassanGibrilMUnattached00:53:03
271593FelicityCaddickFSelby Striders00:53:06
272367JohnTauntonM40Unattached00:53:10
273119DarrenScottMBD2 Running Club00:53:13
274108AidenBradleyMBD2 Running Club00:53:14
275729ClaireWrayF40Unattached00:53:19
276684DianeMawerF50Unattached00:53:22
277682EmmaMarshallFUnattached00:53:24
278283PeterHileyM60Unattached00:53:31
279561SueHolmesF40Kippax Harriers00:53:32
280552SarahCoplandFHorsforth Harriers00:53:32
281363BenStephensonMUnattached00:53:32
282329SteveNorrisM40Unattached00:53:32
283732DebraAndrewF40Viking Striders00:53:34
284709SamanthaSimpsonFUnattached00:53:34
285130BruceWoodfordMBeverley AC00:53:38
286236DavidBlythM40Unattached00:53:44
287224NickAstburyM40Unattached00:53:45
288755KellyPalmerF50Kippax Harriers00:53:46
289431GarethJonesMUnattached00:53:55
290418DickHunterM60York Knavesmire Harriers00:54:01
291712JudithSmithF40Unattached00:54:06
292711RachelSmartF40Unattached00:54:09
29374JenniferFellFUnattached00:54:13
294338AndyPierceMUnattached00:54:14
295748MelanieGrangerF50Yorkshire Wolds Runners00:54:19
296268MatthewFoxMUnattached00:54:26
297231KeithBidderM60Unattached00:54:26
298232NickBidderMUnattached00:54:26
299619SamanthaBoothFUnattached00:54:29
300318GedMeehanM40Unattached00:54:31
301555KarenLargeF40Horsforth Harriers00:54:35
302708Victoria ShiptonFUnattached00:54:38
303206ShaunLoftusM40St Theresa's AC00:54:39
304651RoxanaFreemanFUnattached00:54:40
305705RebeccaScottFUnattached00:54:43
306115NathanLynchMBD2 Running Club00:54:48
307501CatherineJonesF40Ackworth Road Runners00:54:54
308657LucyHarrison-MirfieldF40Unattached00:54:58
309253PeterCoxM60Unattached00:54:58
310704GillianRobinsonFUnattached00:54:59
311596DebbieScottF50Selby Striders00:54:59
312576JillieTownendF50Nidd Valley Road Runners00:54:59
313379ColinUttersonM60Unattached00:54:59
314730NinaZastawniakF50Unattached00:55:02
315393IanWilcoxMUnattached00:55:07
316327RichardNevilleMUnattached00:55:07
317617HelenBarrettF50Unattached00:55:08
318670Jane-MarieKellyFUnattached00:55:09
319359DavidSmartM40Unattached00:55:10
320106Philip BlandM60Baildon00:55:13
321540AnnLongF60East Hull Harriers00:55:13
322152JohnLongM50East Hull Harriers00:55:13
323187RodRobinsonM60Pocklington Runners00:55:18
324539AlisonBurnettFEast Hull Harriers00:55:24
325581LucyHammondFPocklington Runners00:55:29
326400TomaszZastawniakM50Unattached00:55:31
327683ElaineMaughanF40Unattached00:55:33
328734LindaDodsworthF50West Hull Ladies00:55:33
329574PhilippaMoorseFNidd Valley Road Runners00:55:38
330340RogerPryorM60Unattached00:55:38
331295ChrisJacksonM50Unattached00:55:40
332163GrahamHarperM60Haltemprice00:55:47
333208ChristopherMaltbyM50St Theresa's AC00:55:52
334299PeterJohnsonM60Unattached00:55:53
335665Alison HowardF40Unattached00:55:55
336313DavidMarsdenM60Unattached00:55:55
337220AdrianAllenM40Unattached00:56:00
338721SarahThelwellFUnattached00:56:02
339648SueFosterF40Unattached00:56:03
340632AngelaColleyF40Unattached00:56:07
341663JaneHornbyFUnattached00:56:08
342324DavidMorbyM50Unattached00:56:09
343642JaneDowsonF40Unattached00:56:16
344554KarenHarkinF40Horsforth Harriers00:56:31
345699PaulaReidFUnattached00:56:32
346751AmyWilesFYorkshire Wolds Runners00:56:37
347111SteveDonnisonM40BD2 Running Club00:56:37
348575RachaelPrineFNidd Valley Road Runners00:56:39
349382MarkWaddingtonMUnattached00:56:41
350242GrahamBrownM40Unattached00:56:42
351101AndrewGardnerM60St Theresa's AC00:56:44
352380SimonVernonM40Unattached00:56:44
353697RachelReedF40Unattached00:56:47
354265RobinEcclestonM60Unattached00:57:05
355358JakeSmartMUnattached00:57:09
356653MarylaGledhillF50Unattached00:57:10
357686KatyMcWhirterFUnattached00:57:11
358545KarenHarperF40Goole Viking Striders00:57:16
359624RachelBrownF40Unattached00:57:33
360666LauraHudsonFUnattached00:57:41
361344KevinReidM50Unattached00:57:42
362622MyraBracewellF50Unattached00:57:43
363633RosalindCookF40Unattached00:57:47
364377GeorgeTurnerM50Unattached00:57:50
365687AlisonMorbyF50Unattached00:57:55
366544JulieBarkerF40Goole Viking Striders00:57:57
367161RobertOldridgeM50Goole Viking Striders00:57:59
368317AndrewMcMorrisMUnattached00:58:00
369639HelenDilksFUnattached00:58:02
370247MelvynBurtonM60Unattached00:58:05
371750JulieWeatherillF40Yorkshire Wolds Runners00:58:06
372162KeithWilsonM60Goole Viking Striders00:58:12
373414MichaelCollinsM50York Knavesmire Harriers00:58:14
374627RebeccaCastleFUnattached00:58:19
375190KeithJumpM60Saltaire Striders00:58:22
376606EmmaMarchFSt Theresas Athletic Club00:58:24
377254RobinCrewesMUnattached00:58:24
378546AlisonHoggarthF40Goole Viking Striders00:58:33
379349StephenRootsM60Unattached00:58:43
380656PaulaHarrisFUnattached00:58:43
381264DanDyeMUnattached00:58:47
382306MartinKochlMUnattached00:58:47
383229DavidBartonM40Unattached00:58:51
384287MatthewHolroydMUnattached00:58:57
385286GaryHolmesM40Unattached00:59:00
386621EmilyBourneFUnattached00:59:03
387305MathewKnightM50Unattached00:59:05
388530ChristineWhitehouseF50Beverley AC00:59:06
389146JohnBakerM60East Hull Harriers00:59:30
390567AimiBluemanF40Nidd Valley Road Runners00:59:34
391547PhilippaOldridgeFGoole Viking Striders00:59:54
392641ClareDixonFUnattached00:59:56
393189DonSteadM60Pudsey Pacers00:59:58
394397PaulWoodsM40Unattached01:00:08
395271TimFranksM50Unattached01:00:16
396391WayneWestmorelandMUnattached01:00:23
397630BecaClarkFUnattached01:00:23
398518AmandaRouseF40BD2 Running Club01:00:23
399321KevinMillerM50Unattached01:00:26
400610DeniseDonnellyF50Stainland Lions01:00:32
401695Amanda PowellFUnattached01:00:36
402395MichaelWillisMUnattached01:00:39
403228ChrisBarkessM40Unattached01:00:40
404672AlexaKilmartinFUnattached01:00:43
405629Lisa MarieChattertonF40Unattached01:00:45
406304BillKirkpatrickM60Unattached01:00:46
407582DebbieListerFPocklington Runners01:00:48
408678LucyLowsonFUnattached01:00:58
409565AnnStorrF50Lincoln & District01:01:08
410328CherylMorrodF50Unattached01:01:16
411548CoralinHarrisonF60Harrogate Harriers01:01:28
412594GillianKellettF50Selby Striders01:01:34
413717LizzieStorrFUnattached01:01:40
414269NickFoxMUnattached01:01:53
415675AnnLeaF50Unattached01:01:54
416369BillThompsonM50Unattached01:01:54
417600LynseyFarthingFSt Theresas Athletic Club01:01:55
418613SuzyAtkinsonFUnattached01:01:55
419420GarryMossM40York Knavesmire Harriers01:02:04
420638CarolynDammsFUnattached01:02:06
421138WilliamMetcalfeM60Dagenham 88 Runners01:02:12
422542CaroleMcMahonF50Fitmums and Friends01:02:14
423604JoanneLoftusFSt Theresas Athletic Club01:02:22
424650JulieFranksF40Unattached01:02:31
425645KatrinaFairbairnFUnattached01:02:39
426691JuliaPettyFUnattached01:02:44
427607KarenSherrasF40St Theresas Athletic Club01:02:45
428531CatrionaWilliamsonF50Beverley AC01:02:57
429623BerylBradleyF60Unattached01:03:04
430743LindaMossF40York Knavesmire Harriers01:03:06
431725HelenWaddingtonF40Unattached01:03:09
432250MarkChappellMUnattached01:03:13
433728JodieWilliamsonFUnattached01:03:14
434217IanCodlingM60Thirsk & Sowerby Harriers01:03:20
435334MelPattenM50Unattached01:03:22
436212RichardBrearM40Stainland Lions01:03:22
437662HayleyHolmesF40Unattached01:03:29
438527PennyBoothF50Beverley AC01:03:52
439703GinaRobinsonFUnattached01:04:02
440513CarolLuffmanF50BD2 Running Club01:04:13
441715ClaireSpicerFUnattached01:04:35
442676AmyLittlejohnsFUnattached01:04:37
443674TabithaKnowlesF40Unattached01:04:39
444714ClaireSpenceFUnattached01:04:39
445543AlisonVernonF40Garden City Runners01:04:46
446508SharonBlytheF40BD2 Running Club01:04:53
447156JohnScrivensM60Garden City Runners01:04:55
448660AlisonHobkirkF50Unattached01:04:56
449311AndrewLucasM50Unattached01:04:56
450658Emma LouiseHarveyF40Unattached01:05:03
451595Victoria KirkhamFSelby Striders01:05:22
452618SallyBleeFUnattached01:05:25
453273GrahamFrostMUnattached01:05:39
454125FrankHarrisonM60Beverley AC01:06:00
455736YendisWestermanF50West Hull Ladies01:06:07
456586MelissaSteadFPudsey Pacers01:06:31
457640SheilaDilksF60Unattached01:06:36
458710NaomiSmalesFUnattached01:06:52
459652EmilyFreemanFUnattached01:06:52
460598RachelCryerF40St Theresas Athletic Club01:06:54
461735KayleighMarrittFWest Hull Ladies01:07:07
462204GeoffreyHardmanM60St Theresa's AC01:07:26
463637SusanCurreyF60Unattached01:07:32
464634CarolynCoxF60Unattached01:07:32
465278PaulHampelM60Unattached01:07:34
466753LisaSmithF 01:07:43
467592SueZergiF50Scunthorpe & District01:07:55
468726AmandaWallaceFUnattached01:08:03
469557AnastasiaLincolnF50Idle AC01:08:29
470500Jean PickeringF60Selby Striders01:08:42
471644Alison RuthEcclestonF50Unattached01:09:28
472713Helen SnowdenFUnattached01:09:47
473347MalcolmRobertsM50Unattached01:09:47
474522HayleyStokesFBD2 Running Club01:09:53
475350PeterRuddM50Unattached01:10:03
476591SallyYoungFScunthorpe & District01:10:51
477668JenniferJeffesFUnattached01:11:02
478507PaulaBirdF40BD2 Running Club01:11:03
479659MaryHileyF60Unattached01:11:41
480164RobertThomsonM60Haltemprice01:12:38
481746ClaireBarnesFYorkshire Wolds Runners01:13:01
482517JeanOconnorFBD2 Running Club01:13:16
483560MariaElmiehF50Kippax Harriers01:14:18
484649AnneFoxF50Unattached01:16:08
485332GarnettOrfordM60Unattached01:16:46
486689KatieMortonFUnattached01:17:55
487749ClaireRobertsF40Yorkshire Wolds Runners01:19:20
488514SallyMartinFBD2 Running Club01:36:37
489706DianneSharpeF40Unattached01:36:37
Back to year index - Top of page